SCO15BC EGKK-EGPH

Flight info

Callsign SCO15BC
Flight time 1h 1m
Altitude 36000
Route LAM L10 BPK UN601 RIBEL DCT INPIP
Aircraft B738/M-SDE2E3FGHIRWXY/LB1

Departure

Time 2026-04-23 03:04
Airport London Gatwick Airport (EGKK)

Arrival

Time 2026-04-23 04:05
Airport Edinburgh Airport (EGPH)
Time Latitude Longitude Altitude Speed Heading
2026-04-23 02:38 51.15487 -0.16969 203 ft 0 kts 348°
2026-04-23 02:55 51.15478 -0.16966 203 ft 2 kts 348°
2026-04-23 02:55 51.15462 -0.16960 207 ft 2 kts 348°
2026-04-23 02:55 51.15446 -0.16955 203 ft 2 kts 348°
2026-04-23 02:56 51.15430 -0.16949 209 ft 2 kts 348°
2026-04-23 02:56 51.15414 -0.16944 216 ft 2 kts 348°
2026-04-23 02:56 51.15409 -0.16942 216 ft 0 kts 348°
2026-04-23 02:57 51.15410 -0.16942 216 ft 0 kts 348°
2026-04-23 02:57 51.15421 -0.16969 213 ft 9 kts 289°
2026-04-23 02:57 51.15403 -0.17134 213 ft 18 kts 244°
2026-04-23 02:57 51.15329 -0.17250 212 ft 14 kts 212°
2026-04-23 02:58 51.15303 -0.17407 210 ft 21 kts 261°
2026-04-23 02:58 51.15271 -0.17657 213 ft 23 kts 257°
2026-04-23 02:58 51.15237 -0.17897 207 ft 22 kts 258°
2026-04-23 02:58 51.15205 -0.18134 204 ft 22 kts 257°
2026-04-23 02:59 51.15179 -0.18374 203 ft 25 kts 257°
2026-04-23 02:59 51.15138 -0.18669 208 ft 28 kts 257°
2026-04-23 02:59 51.15097 -0.18960 207 ft 26 kts 257°
2026-04-23 02:59 51.15060 -0.19233 204 ft 24 kts 258°
2026-04-23 03:00 51.15025 -0.19489 210 ft 25 kts 257°
2026-04-23 03:00 51.14983 -0.19792 212 ft 28 kts 258°
2026-04-23 03:00 51.14943 -0.20080 210 ft 26 kts 257°
2026-04-23 03:00 51.14906 -0.20350 206 ft 24 kts 258°
2026-04-23 03:01 51.14871 -0.20602 207 ft 23 kts 258°
2026-04-23 03:01 51.14838 -0.20845 211 ft 22 kts 257°
2026-04-23 03:01 51.14805 -0.21085 206 ft 23 kts 258°
2026-04-23 03:01 51.14763 -0.21330 204 ft 22 kts 259°
2026-04-23 03:02 51.14684 -0.21389 210 ft 14 kts 154°
2026-04-23 03:02 51.14600 -0.21321 209 ft 14 kts 168°
2026-04-23 03:02 51.14527 -0.21239 212 ft 13 kts 114°
2026-04-23 03:02 51.14529 -0.21104 211 ft 9 kts 77°
2026-04-23 03:03 51.14534 -0.21064 206 ft 0 kts 77°
2026-04-23 03:03 51.14535 -0.21063 206 ft 1 kts 77°
2026-04-23 03:03 51.14555 -0.20920 210 ft 34 kts 77°
2026-04-23 03:03 51.14613 -0.20499 214 ft 84 kts 78°
2026-04-23 03:04 51.14719 -0.19733 209 ft 129 kts 77°
2026-04-23 03:04 51.15126 -0.16825 812 ft 176 kts 77°
2026-04-23 03:04 51.15380 -0.14974 1766 ft 167 kts 77°
2026-04-23 03:04 51.15630 -0.13138 2463 ft 177 kts 77°
2026-04-23 03:05 51.15914 -0.11048 2778 ft 208 kts 78°
2026-04-23 03:05 51.16234 -0.08686 3002 ft 233 kts 78°
2026-04-23 03:05 51.16788 -0.06138 3224 ft 257 kts 58°
2026-04-23 03:05 51.17877 -0.03749 3883 ft 266 kts 51°
2026-04-23 03:06 51.19022 -0.01494 4395 ft 267 kts 51°
2026-04-23 03:06 51.20194 0.00823 4603 ft 269 kts 51°
2026-04-23 03:06 51.21354 0.03172 4597 ft 269 kts 52°
2026-04-23 03:06 51.22497 0.05521 4606 ft 269 kts 52°
2026-04-23 03:07 51.23639 0.07883 4607 ft 269 kts 52°
2026-04-23 03:07 51.24750 0.10291 4602 ft 270 kts 60°
2026-04-23 03:07 51.25314 0.13122 4615 ft 269 kts 79°
2026-04-23 03:07 51.25650 0.16064 4606 ft 270 kts 79°
2026-04-23 03:08 51.25989 0.19009 4605 ft 270 kts 79°
2026-04-23 03:08 51.26331 0.21961 4604 ft 270 kts 79°
2026-04-23 03:08 51.26676 0.24907 4603 ft 271 kts 79°
2026-04-23 03:08 51.27024 0.27861 4600 ft 271 kts 79°
2026-04-23 03:09 51.27372 0.30815 4603 ft 270 kts 79°
2026-04-23 03:09 51.27979 0.33632 4591 ft 270 kts 56°
2026-04-23 03:09 51.29339 0.35652 4733 ft 271 kts 26°
2026-04-23 03:09 51.31157 0.36405 5377 ft 273 kts
2026-04-23 03:10 51.33012 0.35805 5934 ft 275 kts 338°
2026-04-23 03:10 51.34781 0.34652 6883 ft 274 kts 337°
2026-04-23 03:10 51.36548 0.33487 7737 ft 277 kts 337°
2026-04-23 03:10 51.38342 0.32310 8530 ft 280 kts 337°
2026-04-23 03:11 51.40155 0.31127 9330 ft 284 kts 337°
2026-04-23 03:11 51.41994 0.29930 10110 ft 287 kts 338°
2026-04-23 03:11 51.43856 0.28719 10873 ft 290 kts 338°
2026-04-23 03:11 51.45740 0.27494 11649 ft 294 kts 338°
2026-04-23 03:12 51.47640 0.26258 12423 ft 297 kts 338°
2026-04-23 03:12 51.49567 0.25004 13195 ft 301 kts 338°
2026-04-23 03:12 51.51524 0.23731 13970 ft 304 kts 338°
2026-04-23 03:12 51.53493 0.22450 14745 ft 308 kts 338°
2026-04-23 03:13 51.55491 0.21149 15524 ft 311 kts 338°
2026-04-23 03:13 51.57484 0.19851 16274 ft 315 kts 338°
2026-04-23 03:13 51.59551 0.18502 17022 ft 319 kts 338°
2026-04-23 03:13 51.61616 0.17154 17744 ft 322 kts 338°
2026-04-23 03:14 51.63660 0.15729 18428 ft 326 kts 329°
2026-04-23 03:14 51.65401 0.13370 18913 ft 337 kts 308°
2026-04-23 03:14 51.66778 0.10171 19067 ft 357 kts 302°
2026-04-23 03:14 51.68129 0.06681 19248 ft 376 kts 301°
2026-04-23 03:15 51.69525 0.03050 19701 ft 384 kts 302°
2026-04-23 03:15 51.70962 -0.00607 20542 ft 391 kts 304°
2026-04-23 03:15 51.72438 -0.04305 21217 ft 392 kts 304°
2026-04-23 03:15 51.73969 -0.07924 22009 ft 389 kts 310°
2026-04-23 03:16 51.75827 -0.11087 22725 ft 388 kts 320°
2026-04-23 03:16 51.77979 -0.13699 23371 ft 389 kts 329°
2026-04-23 03:16 51.82669 -0.18125 24478 ft 392 kts 332°
2026-04-23 03:17 51.85041 -0.20318 25018 ft 393 kts 332°
2026-04-23 03:17 51.87413 -0.22531 25550 ft 394 kts 331°
2026-04-23 03:17 51.89782 -0.24763 26069 ft 395 kts 331°
2026-04-23 03:17 51.92161 -0.27023 26577 ft 397 kts 331°
2026-04-23 03:18 51.94548 -0.29300 27066 ft 399 kts 331°
2026-04-23 03:18 51.96943 -0.31592 27561 ft 400 kts 331°
2026-04-23 03:18 51.99347 -0.33898 28020 ft 402 kts 331°
2026-04-23 03:18 52.01756 -0.36211 28468 ft 404 kts 331°
2026-04-23 03:19 52.04183 -0.38541 28909 ft 406 kts 331°
2026-04-23 03:19 52.06612 -0.40878 29343 ft 408 kts 331°
2026-04-23 03:19 52.08232 -0.42437 29623 ft 409 kts 331°
2026-04-23 03:19 52.10684 -0.44806 30039 ft 411 kts 331°
2026-04-23 03:20 52.13144 -0.47192 30470 ft 412 kts 331°
2026-04-23 03:20 52.15599 -0.49579 30945 ft 410 kts 331°
2026-04-23 03:20 52.18042 -0.51956 31364 ft 409 kts 331°
2026-04-23 03:20 52.20490 -0.54338 31732 ft 410 kts 330°
2026-04-23 03:21 52.22942 -0.56727 32116 ft 410 kts 330°
2026-04-23 03:21 52.25390 -0.59115 32518 ft 410 kts 330°
2026-04-23 03:21 52.27830 -0.61497 32906 ft 410 kts 330°
2026-04-23 03:21 52.30278 -0.63889 33281 ft 410 kts 330°
2026-04-23 03:22 52.32722 -0.66281 33661 ft 409 kts 330°
2026-04-23 03:22 52.35166 -0.68676 34046 ft 409 kts 330°
2026-04-23 03:22 52.37601 -0.71066 34407 ft 409 kts 330°
2026-04-23 03:22 52.40043 -0.73466 34730 ft 409 kts 330°
2026-04-23 03:23 52.42485 -0.75869 34994 ft 410 kts 330°
2026-04-23 03:23 52.44935 -0.78284 35233 ft 411 kts 330°
2026-04-23 03:23 52.47389 -0.80706 35513 ft 412 kts 330°
2026-04-23 03:23 52.49838 -0.83126 35784 ft 412 kts 330°
2026-04-23 03:24 52.52298 -0.85560 36039 ft 413 kts 330°
2026-04-23 03:24 52.54762 -0.88002 36303 ft 413 kts 330°
2026-04-23 03:24 52.57223 -0.90443 36468 ft 416 kts 330°
2026-04-23 03:24 52.59717 -0.92920 36461 ft 420 kts 330°
2026-04-23 03:25 52.64714 -0.97878 36410 ft 417 kts 330°
2026-04-23 03:25 52.69613 -1.02735 36472 ft 412 kts 330°
2026-04-23 03:26 52.74532 -1.07626 36480 ft 413 kts 329°
2026-04-23 03:26 52.79445 -1.12556 36483 ft 414 kts 329°
2026-04-23 03:27 52.84372 -1.17526 36480 ft 415 kts 329°
2026-04-23 03:27 52.89303 -1.22508 36483 ft 416 kts 329°
2026-04-23 03:28 52.94251 -1.27517 36486 ft 417 kts 329°
2026-04-23 03:28 52.99202 -1.32539 36487 ft 418 kts 329°
2026-04-23 03:29 53.04167 -1.37577 36488 ft 418 kts 329°
2026-04-23 03:29 53.09130 -1.42627 36491 ft 419 kts 329°
2026-04-23 03:30 53.14099 -1.47700 36497 ft 419 kts 329°
2026-04-23 03:30 53.19062 -1.52780 36499 ft 419 kts 329°
2026-04-23 03:31 53.24031 -1.57880 36504 ft 419 kts 329°
2026-04-23 03:31 53.28997 -1.62990 36504 ft 419 kts 329°
2026-04-23 03:32 53.33955 -1.68100 36502 ft 419 kts 329°
2026-04-23 03:32 53.38911 -1.73220 36505 ft 418 kts 329°
2026-04-23 03:33 53.43860 -1.78347 36503 ft 419 kts 329°
2026-04-23 03:33 53.48780 -1.83462 36503 ft 419 kts 329°
2026-04-23 03:34 53.53722 -1.88627 36497 ft 419 kts 329°
2026-04-23 03:34 53.58670 -1.93810 36498 ft 419 kts 328°
2026-04-23 03:35 53.63625 -1.98999 36499 ft 419 kts 329°
2026-04-23 03:35 53.68581 -2.04184 36503 ft 420 kts 329°
2026-04-23 03:36 53.73539 -2.09383 36501 ft 420 kts 329°
2026-04-23 03:36 53.78842 -2.13468 36516 ft 419 kts 339°
2026-04-23 03:37 53.84273 -2.17095 36518 ft 420 kts 338°
2026-04-23 03:37 53.89682 -2.20814 36504 ft 420 kts 338°
2026-04-23 03:38 53.95104 -2.24531 36519 ft 420 kts 338°
2026-04-23 03:38 54.00529 -2.28259 36518 ft 420 kts 338°
2026-04-23 03:39 54.05947 -2.31992 36504 ft 421 kts 338°
2026-04-23 03:39 54.11372 -2.35737 36517 ft 421 kts 338°
2026-04-23 03:40 54.16790 -2.39488 36516 ft 420 kts 338°
2026-04-23 03:40 54.22184 -2.43234 36484 ft 408 kts 338°
2026-04-23 03:41 54.24766 -2.45031 36422 ft 396 kts 338°
2026-04-23 03:41 54.27312 -2.46805 36135 ft 390 kts 338°
2026-04-23 03:41 54.28978 -2.47968 35906 ft 391 kts 338°
2026-04-23 03:42 54.33997 -2.51475 35141 ft 387 kts 338°
2026-04-23 03:42 54.37294 -2.53784 34646 ft 385 kts 338°
2026-04-23 03:42 54.39763 -2.55516 34229 ft 384 kts 338°
2026-04-23 03:42 54.42237 -2.57254 33809 ft 384 kts 338°
2026-04-23 03:43 54.44713 -2.58995 33417 ft 386 kts 338°
2026-04-23 03:43 54.47209 -2.60752 33033 ft 391 kts 338°
2026-04-23 03:43 54.49744 -2.62540 32641 ft 396 kts 338°
2026-04-23 03:43 54.52298 -2.64343 32237 ft 397 kts 338°
2026-04-23 03:44 54.54856 -2.66152 31842 ft 398 kts 338°
2026-04-23 03:44 54.57419 -2.67967 31447 ft 398 kts 337°
2026-04-23 03:44 54.59981 -2.69783 31057 ft 399 kts 337°
2026-04-23 03:44 54.62551 -2.71608 30661 ft 400 kts 337°
2026-04-23 03:45 54.65121 -2.73435 30211 ft 400 kts 337°
2026-04-23 03:45 54.67697 -2.75269 29765 ft 400 kts 337°
2026-04-23 03:45 54.70269 -2.77103 29339 ft 400 kts 337°
2026-04-23 03:45 54.72844 -2.78941 28910 ft 400 kts 337°
2026-04-23 03:46 54.75424 -2.80786 28482 ft 402 kts 337°
2026-04-23 03:46 54.78028 -2.82651 28057 ft 406 kts 336°
2026-04-23 03:46 54.80654 -2.84534 27624 ft 412 kts 337°
2026-04-23 03:46 54.83316 -2.86445 27188 ft 415 kts 336°
2026-04-23 03:47 54.85991 -2.88368 26746 ft 416 kts 336°
2026-04-23 03:47 54.88670 -2.90296 26267 ft 419 kts 336°
2026-04-23 03:47 54.91359 -2.92241 25679 ft 421 kts 336°
2026-04-23 03:47 54.94058 -2.94198 25101 ft 419 kts 336°
2026-04-23 03:48 54.96740 -2.96146 24531 ft 417 kts 337°
2026-04-23 03:48 54.99420 -2.98096 23917 ft 417 kts 337°
2026-04-23 03:48 55.02096 -3.00044 23261 ft 415 kts 337°
2026-04-23 03:48 55.04754 -3.01982 22675 ft 412 kts 336°
2026-04-23 03:49 55.07390 -3.03907 22101 ft 409 kts 336°
2026-04-23 03:49 55.10001 -3.05816 21533 ft 406 kts 336°
2026-04-23 03:49 55.12601 -3.07719 20976 ft 404 kts 336°
2026-04-23 03:49 55.15186 -3.09614 20409 ft 402 kts 336°
2026-04-23 03:50 55.17763 -3.11503 19814 ft 401 kts 336°
2026-04-23 03:50 55.19468 -3.12754 19411 ft 401 kts 336°
2026-04-23 03:50 55.22906 -3.15278 18569 ft 401 kts 336°
2026-04-23 03:50 55.25479 -3.17171 17889 ft 401 kts 336°
2026-04-23 03:51 55.28046 -3.19058 17244 ft 399 kts 337°
2026-04-23 03:51 55.30723 -3.20262 16612 ft 399 kts 355°
2026-04-23 03:51 55.33447 -3.20099 16070 ft 395 kts
2026-04-23 03:51 55.36177 -3.19650 15451 ft 394 kts
2026-04-23 03:52 55.38901 -3.19155 14851 ft 390 kts
2026-04-23 03:52 55.41560 -3.18678 14243 ft 378 kts
2026-04-23 03:52 55.44140 -3.18235 13602 ft 367 kts
2026-04-23 03:52 55.46638 -3.17823 13029 ft 356 kts
2026-04-23 03:53 55.49079 -3.17431 12494 ft 351 kts
2026-04-23 03:53 55.51510 -3.17047 11952 ft 351 kts
2026-04-23 03:53 55.53949 -3.16663 11398 ft 352 kts
2026-04-23 03:53 55.56386 -3.16279 10836 ft 353 kts
2026-04-23 03:54 55.58834 -3.15894 10276 ft 353 kts
2026-04-23 03:54 55.61284 -3.15507 9673 ft 353 kts
2026-04-23 03:54 55.63728 -3.15121 9109 ft 351 kts
2026-04-23 03:54 55.66114 -3.14744 8551 ft 339 kts
2026-04-23 03:55 55.68430 -3.14766 8017 ft 330 kts 348°
2026-04-23 03:55 55.70505 -3.16274 7563 ft 319 kts 324°
2026-04-23 03:55 55.72055 -3.18903 7386 ft 299 kts 306°
2026-04-23 03:55 55.73035 -3.22009 7204 ft 282 kts 288°
2026-04-23 03:56 55.73617 -3.25273 7054 ft 274 kts 284°
2026-04-23 03:56 55.74115 -3.28496 6812 ft 268 kts 283°
2026-04-23 03:56 55.74586 -3.31616 6568 ft 258 kts 283°
2026-04-23 03:56 55.75049 -3.34672 6178 ft 255 kts 283°
2026-04-23 03:57 55.75504 -3.37643 5938 ft 249 kts 283°
2026-04-23 03:57 55.75963 -3.40623 5802 ft 251 kts 283°
2026-04-23 03:57 55.76433 -3.43667 5650 ft 254 kts 284°
2026-04-23 03:57 55.76902 -3.46689 5502 ft 253 kts 284°
2026-04-23 03:58 55.77362 -3.49652 5350 ft 251 kts 284°
2026-04-23 03:58 55.77825 -3.52631 5203 ft 249 kts 284°
2026-04-23 03:58 55.78291 -3.55633 5050 ft 249 kts 284°
2026-04-23 03:58 55.78743 -3.58543 4905 ft 245 kts 283°
2026-04-23 03:59 55.79191 -3.61428 4768 ft 239 kts 283°
2026-04-23 03:59 55.79626 -3.64240 4624 ft 233 kts 283°
2026-04-23 03:59 55.80048 -3.66976 4490 ft 227 kts 283°
2026-04-23 03:59 55.80464 -3.69630 4350 ft 217 kts 287°
2026-04-23 04:00 55.81295 -3.71697 4233 ft 202 kts 331°
2026-04-23 04:00 55.82637 -3.72026 4172 ft 200 kts 18°
2026-04-23 04:00 55.83714 -3.70611 4082 ft 194 kts 58°
2026-04-23 04:00 55.84434 -3.68591 4043 ft 193 kts 60°
2026-04-23 04:01 55.85149 -3.66544 3832 ft 196 kts 61°
2026-04-23 04:01 55.85852 -3.64467 3578 ft 195 kts 61°
2026-04-23 04:01 55.86530 -3.62444 3317 ft 192 kts 62°
2026-04-23 04:01 55.87207 -3.60425 3059 ft 188 kts 62°
2026-04-23 04:02 55.87872 -3.58441 2810 ft 185 kts 61°
2026-04-23 04:02 55.88526 -3.56492 2551 ft 182 kts 61°
2026-04-23 04:02 55.89159 -3.54605 2294 ft 173 kts 61°
2026-04-23 04:02 55.89761 -3.52815 2057 ft 163 kts 60°
2026-04-23 04:03 55.90326 -3.51132 1832 ft 153 kts 60°
2026-04-23 04:03 55.90848 -3.49580 1659 ft 138 kts 60°
2026-04-23 04:03 55.91326 -3.48157 1444 ft 130 kts 60°
2026-04-23 04:03 55.91799 -3.46764 1287 ft 133 kts 60°
2026-04-23 04:04 55.92277 -3.45329 1081 ft 136 kts 60°
2026-04-23 04:04 55.92760 -3.43890 848 ft 134 kts 60°
2026-04-23 04:04 55.93236 -3.42472 671 ft 133 kts 59°
2026-04-23 04:04 55.93719 -3.41050 478 ft 135 kts 59°
2026-04-23 04:05 55.94204 -3.39615 258 ft 133 kts 59°
2026-04-23 04:05 55.94675 -3.38217 113 ft 126 kts 59°
2026-04-23 04:05 55.95020 -3.37191 111 ft 65 kts 59°
2026-04-23 04:05 55.95198 -3.36668 112 ft 45 kts 58°
2026-04-23 04:06 55.95260 -3.36448 110 ft 17 kts 101°
2026-04-23 04:06 55.95138 -3.36310 115 ft 14 kts 184°
2026-04-23 04:06 55.95069 -3.36401 113 ft 11 kts 168°
2026-04-23 04:06 55.95019 -3.36388 115 ft 10 kts 201°
2026-04-23 04:07 55.94989 -3.36404 114 ft 4 kts 172°
2026-04-23 04:07 55.94941 -3.36358 113 ft 6 kts 149°
2026-04-23 04:07 55.94934 -3.36351 113 ft 0 kts 148°